• în Republica Moldova
  • Lista ţărilor
  • Pe 7 zile
  • Temperatura apei
  • Hartă satelitară
  • Meteo pe hartă
  • Widget-uri
  • user-avatar
    Intrare

    Meteo pe oră la Boldui

    Astăzi, 22 Februarie, Vineri

    Timp Temperatura Precipitaţii Vânt Presiune Umiditate
    00:00 -12°C° 0 mm 5 m/s 750 mmHg 81%
    01:00 -13°C° 0 mm 5 m/s 750 mmHg 81%
    02:00 -13°C° 0 mm 5 m/s 751 mmHg 80%
    03:00 -13°C° 0 mm 5 m/s 751 mmHg 80%
    04:00 -15°C° 0 mm 6 m/s 751 mmHg 80%
    05:00 -15°C° 0 mm 6 m/s 751 mmHg 80%
    06:00 -15°C° 0 mm 6 m/s 752 mmHg 80%
    07:00 -15°C° 0 mm 6 m/s 752 mmHg 80%
    08:00 -15°C° 0 mm 6 m/s 752 mmHg 79%
    09:00 -14°C° 0 mm 7 m/s 753 mmHg 77%
    10:00 -13°C° 0 mm 7 m/s 753 mmHg 74%
    11:00 -12°C° 0 mm 8 m/s 753 mmHg 72%
    12:00 -12°C° 0 mm 8 m/s 754 mmHg 71%
    13:00 -12°C° 0 mm 8 m/s 754 mmHg 71%
    14:00 -11°C° 0 mm 7 m/s 754 mmHg 71%
    15:00 -11°C° 0.1 mm 7 m/s 755 mmHg 72%
    16:00 -12°C° 0.1 mm 7 m/s 755 mmHg 74%
    17:00 -12°C° 0.1 mm 7 m/s 756 mmHg 76%
    18:00 -12°C° 0 mm 7 m/s 757 mmHg 77%
    19:00 -11°C° 0 mm 6 m/s 757 mmHg 78%
    20:00 -12°C° 0 mm 6 m/s 758 mmHg 79%
    21:00 -12°C° 0 mm 6 m/s 759 mmHg 79%
    22:00 -12°C° 0 mm 5 m/s 760 mmHg 80%
    23:00 -12°C° 0 mm 5 m/s 761 mmHg 81%

    Mâine, 23 Februarie, Sâmbătă

    Timp Temperatura Precipitaţii Vânt Presiune Umiditate
    00:00 -12°C° 0 mm 5 m/s 761 mmHg 81%
    01:00 -12°C° 0 mm 5 m/s 762 mmHg 82%
    02:00 -12°C° 0 mm 5 m/s 762 mmHg 83%
    03:00 -13°C° 0 mm 5 m/s 763 mmHg 84%
    04:00 -13°C° 0 mm 5 m/s 763 mmHg 85%
    05:00 -14°C° 0 mm 5 m/s 764 mmHg 87%
    06:00 -14°C° 0 mm 4 m/s 764 mmHg 87%
    07:00 -14°C° 0 mm 4 m/s 765 mmHg 87%
    08:00 -15°C° 0 mm 4 m/s 765 mmHg 88%
    09:00 -12°C° 0 mm 3 m/s 765 mmHg 85%
    10:00 -10°C° 0 mm 3 m/s 766 mmHg 83%
    11:00 -9°C° 0 mm 3 m/s 766 mmHg 80%
    12:00 -8°C° 0 mm 3 m/s 765 mmHg 78%
    13:00 -7°C° 0 mm 3 m/s 765 mmHg 76%
    14:00 -6°C° 0 mm 3 m/s 765 mmHg 74%
    15:00 -6°C° 0 mm 3 m/s 765 mmHg 74%
    16:00 -7°C° 0 mm 3 m/s 765 mmHg 74%
    17:00 -7°C° 0 mm 3 m/s 764 mmHg 74%
    18:00 -7°C° 0 mm 3 m/s 764 mmHg 73%
    19:00 -7°C° 0 mm 3 m/s 764 mmHg 71%
    20:00 -6°C° 0 mm 3 m/s 764 mmHg 70%
    21:00 -7°C° 0.1 mm 4 m/s 763 mmHg 71%
    22:00 -7°C° 0.1 mm 4 m/s 762 mmHg 71%
    23:00 -7°C° 0.1 mm 4 m/s 762 mmHg 71%

    Poimâine, 24 Februarie, Duminică

    Timp Temperatura Precipitaţii Vânt Presiune Umiditate
    00:00 -7°C° 0.1 mm 4 m/s 762 mmHg 75%
    01:00 -7°C° 0.1 mm 5 m/s 761 mmHg 79%
    02:00 -7°C° 0.1 mm 5 m/s 761 mmHg 83%
    03:00 -7°C° 0.3 mm 5 m/s 760 mmHg 85%
    04:00 -7°C° 0.3 mm 5 m/s 760 mmHg 87%
    05:00 -7°C° 0.3 mm 5 m/s 760 mmHg 89%
    06:00 -7°C° 0.2 mm 5 m/s 759 mmHg 89%
    07:00 -6°C° 0.2 mm 5 m/s 759 mmHg 89%
    08:00 -6°C° 0.2 mm 5 m/s 759 mmHg 90%
    09:00 -5°C° 0 mm 5 m/s 759 mmHg 89%
    10:00 -4°C° 0 mm 4 m/s 759 mmHg 89%
    11:00 -3°C° 0 mm 4 m/s 760 mmHg 89%
    12:00 -3°C° 0 mm 4 m/s 759 mmHg 90%
    13:00 -2°C° 0 mm 4 m/s 759 mmHg 91%
    14:00 -2°C° 0 mm 4 m/s 759 mmHg 92%
    15:00 -2°C° 0 mm 4 m/s 759 mmHg 91%
    16:00 -1°C° 0 mm 3 m/s 759 mmHg 91%
    17:00 -1°C° 0 mm 3 m/s 759 mmHg 90%
    18:00 -1°C° 0 mm 3 m/s 759 mmHg 90%
    19:00 -1°C° 0 mm 3 m/s 759 mmHg 91%
    20:00 -2°C° 0 mm 3 m/s 759 mmHg 91%
    21:00 -2°C° 0 mm 3 m/s 759 mmHg 91%
    22:00 -2°C° 0 mm 3 m/s 759 mmHg 91%
    23:00 -2°C° 0 mm 3 m/s 759 mmHg 92%

    25 Februarie, Luni

    Timp Temperatura Precipitaţii Vânt Presiune Umiditate
    00:00 -2°C° 0 mm 3 m/s 758 mmHg 91%
    01:00 -3°C° 0 mm 4 m/s 758 mmHg 91%
    02:00 -3°C° 0 mm 4 m/s 757 mmHg 90%
    03:00 -3°C° 0 mm 4 m/s 757 mmHg 90%
    04:00 -3°C° 0 mm 4 m/s 756 mmHg 90%
    05:00 -5°C° 0 mm 5 m/s 755 mmHg 89%
    06:00 -4°C° 0 mm 5 m/s 755 mmHg 90%
    07:00 -2°C° 0 mm 5 m/s 755 mmHg 91%
    08:00 -2°C° 0 mm 5 m/s 755 mmHg 91%
    09:00 -1°C° 0 mm 5 m/s 755 mmHg 93%
    10:00 -1°C° 0 mm 5 m/s 755 mmHg 95%
    11:00 0°C° 0 mm 5 m/s 755 mmHg 97%
    12:00 0°C° 0 mm 5 m/s 754 mmHg 94%
    13:00 -1°C° 0 mm 6 m/s 754 mmHg 91%
    14:00 -1°C° 0 mm 6 m/s 754 mmHg 89%
    15:00 -1°C° 0 mm 6 m/s 754 mmHg 87%
    16:00 -1°C° 0 mm 6 m/s 754 mmHg 86%
    17:00 -2°C° 0 mm 6 m/s 753 mmHg 84%
    18:00 -2°C° 0 mm 6 m/s 753 mmHg 84%
    19:00 -2°C° 0 mm 6 m/s 753 mmHg 84%
    20:00 -2°C° 0 mm 5 m/s 753 mmHg 84%
    21:00 -2°C° 0 mm 5 m/s 753 mmHg 84%
    22:00 -1°C° 0 mm 5 m/s 753 mmHg 85%
    23:00 -1°C° 0 mm 5 m/s 753 mmHg 85%

    26 Februarie, Marţi

    Timp Temperatura Precipitaţii Vânt Presiune Umiditate
    00:00 -2°C° 0 mm 5 m/s 753 mmHg 87%
    01:00 -2°C° 0 mm 5 m/s 753 mmHg 88%
    02:00 -4°C° 0 mm 5 m/s 753 mmHg 90%
    03:00 -4°C° 0 mm 5 m/s 752 mmHg 91%
    04:00 -4°C° 0 mm 5 m/s 752 mmHg 92%
    05:00 -4°C° 0 mm 5 m/s 751 mmHg 92%
    06:00 -4°C° 0 mm 5 m/s 751 mmHg 92%
    07:00 -4°C° 0 mm 5 m/s 751 mmHg 91%
    08:00 -4°C° 0 mm 5 m/s 751 mmHg 91%
    09:00 -2°C° 0 mm 5 m/s 750 mmHg 90%
    10:00 -2°C° 0 mm 5 m/s 749 mmHg 88%
    11:00 -1°C° 0 mm 5 m/s 749 mmHg 87%
    12:00 -2°C° 0.1 mm 6 m/s 748 mmHg 87%
    13:00 -1°C° 0.1 mm 7 m/s 747 mmHg 87%
    14:00 -1°C° 0.1 mm 7 m/s 746 mmHg 87%
    15:00 -1°C° 0 mm 7 m/s 746 mmHg 85%
    16:00 -1°C° 0 mm 8 m/s 745 mmHg 83%
    17:00 -1°C° 0 mm 8 m/s 745 mmHg 82%
    18:00 -1°C° 0 mm 8 m/s 745 mmHg 82%
    19:00 -1°C° 0 mm 8 m/s 746 mmHg 83%
    20:00 -1°C° 0 mm 9 m/s 746 mmHg 83%
    21:00 -1°C° 0 mm 8 m/s 747 mmHg 83%
    22:00 -1°C° 0 mm 8 m/s 747 mmHg 83%
    23:00 -1°C° 0 mm 8 m/s 747 mmHg 83%

    27 Februarie, Miercuri

    Timp Temperatura Precipitaţii Vânt Presiune Umiditate
    00:00 -2°C° 0 mm 7 m/s 748 mmHg 84%
    01:00 -2°C° 0 mm 7 m/s 749 mmHg 85%
    02:00 -2°C° 0 mm 7 m/s 749 mmHg 86%
    03:00 -2°C° 0 mm 6 m/s 750 mmHg 87%
    04:00 -1°C° 0 mm 5 m/s 750 mmHg 88%
    05:00 -1°C° 0 mm 5 m/s 751 mmHg 89%
    06:00 -2°C° 0 mm 5 m/s 751 mmHg 89%
    07:00 -2°C° 0 mm 4 m/s 752 mmHg 90%
    08:00 -2°C° 0 mm 4 m/s 752 mmHg 90%
    09:00 -1°C° 0 mm 4 m/s 752 mmHg 88%
    10:00 -1°C° 0 mm 4 m/s 752 mmHg 86%
    11:00 +1°C° 0 mm 3 m/s 752 mmHg 84%
    12:00 +1°C° 0 mm 3 m/s 751 mmHg 81%
    13:00 +1°C° 0 mm 3 m/s 751 mmHg 77%
    14:00 +1°C° 0 mm 4 m/s 750 mmHg 74%
    15:00 +1°C° 0 mm 3 m/s 749 mmHg 77%
    16:00 +1°C° 0 mm 3 m/s 748 mmHg 81%
    17:00 0°C° 0 mm 3 m/s 747 mmHg 84%
    18:00 -1°C° 0 mm 4 m/s 746 mmHg 84%
    19:00 -1°C° 0 mm 5 m/s 745 mmHg 84%
    20:00 -2°C° 0 mm 6 m/s 744 mmHg 84%
    21:00 -1°C° 0 mm 6 m/s 743 mmHg 82%
    22:00 -1°C° 0 mm 6 m/s 742 mmHg 81%
    23:00 -1°C° 0 mm 6 m/s 741 mmHg 79%
    Arată mai mult